User: anonymous   Login
Location: Unspecified
(0.0000°N, 0.0000°E)
Time: 00:20:06
(UTC+00:00)
Language:

YUBILEINY - Orbit

View from above orbital plane
View from above orbital plane
View from above satellite
View from above satellite

Ground track
Ground track

The orbit data is extracted from the following two-line orbital elements,

1 32953U 08025A   18201.52082173  .00000031  00000-0  14906-3 0  9994
2 32953  82.5042 351.9439 0019924 135.8512 224.4162 12.43084409460915
Epoch (UTC): 20 July 2018 12:29:58
Eccentricity: 0.0019924
inclination: 82.5042°
perigee height: 1478 km
apogee height: 1509 km
right ascension of ascending node: 351.9439°
argument of perigee: 135.8512°
revolutions per day: 12.43084409
mean anomaly at epoch: 224.4162°
orbit number at epoch: 46091

The dashed part of the orbit path shows where the satellite is in the earth's shadow,  

DLR